New Ulm, MN

3:16 AM CST on December 07, 2019 (GMT -0600)
New Ulm Municipal

Weather History for KULM - July, 2019

Change the Weather History Date:

Monday, July 22, 2019

  Actual Average Record
Temperature  
Mean Temperature 66 °F -  
Max Temperature 75 °F 82 °F 99 °F (1983)
Min Temperature 57 °F 61 °F 49 °F (1985)
Cooling Degree Days 1    
Growing Degree Days 16 (Base 50)    
Moisture  
Dew Point 52 °F    
Average Humidity 62    
Maximum Humidity 88    
Minimum Humidity 38    
Precipitation  
Precipitation 0.00 in - - ()
Sea Level Pressure  
Sea Level Pressure 30.23 in    
Wind  
Wind Speed 6 mph (North)    
Max Wind Speed 12 mph    
Max Gust Speed 20 mph    
Visibility 10 miles    
Events      
Averages and records for this station are not official NWS values.
T = Trace of Precipitation, MM = Missing Value Source: NWS Daily Summary

Daily Weather History Graph

Daily Weather History Graph

Search for Another Location

Airport or City:

Astronomy

Jul. 22, 2019 Rise Set
Actual Time 5:54 AM CDT 8:53 PM CDT
Civil Twilight 5:20 AM CDT 9:28 PM CDT
Nautical Twilight 4:35 AM CDT 10:12 PM CDT
Astronomical Twilight 3:43 AM CDT 11:04 PM CDT
Moon No Moon Rise 11:22 AM CDT (7/22)
Length of Visible Light 16h 08m
Length of Day
14h 59m
Waning Gibbous, 72% of the Moon is Illuminated
Jul 22
Waning Gibbous
Jul 24
Last Quarter
Jul 31
New
Aug 7
First Quarter
Aug 15
Full

Hourly Weather History & Observations

Time (CDT) Temp. Dew Point Humidity Pressure Visibility Wind Dir Wind Speed Gust Speed Precip Events Conditions
12:15 AM 64.4 °F 55.4 °F 73% 30.16 in 10.0 mi NNW 6.9 mph - N/A   Scattered Clouds
12:35 AM 64.4 °F 55.4 °F 73% 30.16 in 10.0 mi NNW 4.6 mph - N/A   Scattered Clouds
12:55 AM 62.6 °F 55.4 °F 77% 30.17 in 10.0 mi NNW 5.8 mph - N/A   Clear
12:56 AM 62.6 °F 55.4 °F 77% 30.17 in 10.0 mi NNW 5.8 mph - N/A   Clear
1:15 AM 60.8 °F 55.4 °F 82% 30.17 in 10.0 mi NNW 6.9 mph - N/A   Clear
1:16 AM 62.6 °F 55.4 °F 77% 30.17 in 10.0 mi NNW 6.9 mph - N/A   Clear
1:35 AM 62.6 °F 55.4 °F 77% 30.17 in 10.0 mi NNW 5.8 mph - N/A   Clear
1:55 AM 60.8 °F 55.4 °F 82% 30.18 in 10.0 mi NNW 5.8 mph - N/A   Clear
2:15 AM 60.8 °F 55.4 °F 82% 30.18 in 10.0 mi NNW 5.8 mph - N/A   Clear
2:35 AM 60.8 °F 55.4 °F 82% 30.18 in 10.0 mi NNW 5.8 mph - N/A   Clear
2:36 AM 60.8 °F 55.4 °F 82% 30.18 in 10.0 mi NNW 5.8 mph - N/A   Clear
2:55 AM 60.8 °F 55.4 °F 82% 30.19 in 10.0 mi NNW 5.8 mph - N/A   Clear
2:56 AM 60.8 °F 55.4 °F 82% 30.19 in 10.0 mi NNW 5.8 mph - N/A   Clear
3:15 AM 60.8 °F 55.4 °F 82% 30.19 in 10.0 mi NNW 5.8 mph - N/A   Clear
3:35 AM 59.0 °F 55.4 °F 88% 30.19 in 10.0 mi NNW 5.8 mph - N/A   Clear
3:36 AM 59.0 °F 55.4 °F 88% 30.19 in 10.0 mi NNW 5.8 mph - N/A   Clear
3:55 AM 59.0 °F 55.4 °F 88% 30.19 in 10.0 mi NNW 6.9 mph - N/A   Clear
3:56 AM 59.0 °F 55.4 °F 88% 30.19 in 10.0 mi NNW 5.8 mph - N/A   Clear
4:15 AM 59.0 °F 55.4 °F 88% 30.20 in 10.0 mi NNW 6.9 mph - N/A   Clear
4:16 AM 59.0 °F 55.4 °F 88% 30.20 in 10.0 mi NNW 6.9 mph - N/A   Clear
4:35 AM 59.0 °F 55.4 °F 88% 30.20 in 10.0 mi NNW 6.9 mph - N/A   Clear
4:55 AM 59.0 °F 55.4 °F 88% 30.20 in 10.0 mi NNW 5.8 mph - N/A   Clear
5:15 AM 59.0 °F 55.4 °F 88% 30.21 in 10.0 mi NNW 6.9 mph - N/A   Clear
5:35 AM 59.0 °F 55.4 °F 88% 30.21 in 10.0 mi North 4.6 mph - N/A   Clear
5:36 AM 59.0 °F 55.4 °F 88% 30.21 in 10.0 mi North 5.8 mph - N/A   Clear
5:55 AM 59.0 °F 53.6 °F 82% 30.22 in 10.0 mi North 4.6 mph - N/A   Clear
6:15 AM 57.2 °F 53.6 °F 88% 30.23 in 10.0 mi North 4.6 mph - N/A   Clear
6:16 AM 57.2 °F 53.6 °F 88% 30.23 in 10.0 mi North 5.8 mph - N/A   Clear
6:35 AM 59.0 °F 55.4 °F 88% - 10.0 mi North 5.8 mph - N/A   Clear
6:55 AM 60.8 °F 53.6 °F 77% 30.23 in 10.0 mi North 5.8 mph - N/A   Clear
6:56 AM 60.8 °F 53.6 °F 77% 30.23 in 10.0 mi North 5.8 mph - N/A   Clear
7:15 AM 60.8 °F 55.4 °F 82% 30.24 in 10.0 mi North 4.6 mph - N/A   Clear
7:35 AM 60.8 °F 55.4 °F 82% 30.24 in 10.0 mi North 5.8 mph - N/A   Clear
7:36 AM 60.8 °F 55.4 °F 82% 30.24 in 10.0 mi North 5.8 mph - N/A   Clear
7:55 AM 62.6 °F 55.4 °F 77% 30.25 in 10.0 mi Calm Calm - N/A   Clear
8:15 AM 62.6 °F 53.6 °F 72% 30.25 in 10.0 mi NNE 4.6 mph - N/A   Clear
8:16 AM 62.6 °F 53.6 °F 72% 30.25 in 10.0 mi North 4.6 mph - N/A   Clear
8:35 AM 64.4 °F 53.6 °F 68% 30.26 in 10.0 mi North 5.8 mph - N/A   Clear
8:55 AM 64.4 °F 51.8 °F 64% 30.26 in 10.0 mi NNE 6.9 mph - N/A   Clear
9:15 AM 66.2 °F 53.6 °F 64% 30.26 in 10.0 mi North 6.9 mph - N/A   Clear
9:16 AM 66.2 °F 53.6 °F 64% 30.26 in 10.0 mi North 6.9 mph - N/A   Clear
9:35 AM 68.0 °F 51.8 °F 56% 30.26 in 10.0 mi NE 9.2 mph - N/A   Clear
9:36 AM 68.0 °F 51.8 °F 56% 30.26 in 10.0 mi NE 9.2 mph - N/A   Clear
9:55 AM 68.0 °F 51.8 °F 56% 30.26 in 10.0 mi NNE 8.1 mph - N/A   Clear
9:56 AM 68.0 °F 51.8 °F 56% 30.26 in 10.0 mi NNE 8.1 mph - N/A   Clear
10:15 AM 68.0 °F 48.2 °F 49% 30.26 in 10.0 mi NNE 11.5 mph 16.1 mph N/A   Clear
10:16 AM 69.8 °F 48.2 °F 46% 30.26 in 10.0 mi NNE 11.5 mph 16.1 mph N/A   Clear
10:35 AM 69.8 °F 48.2 °F 46% 30.27 in 10.0 mi NNE 9.2 mph 16.1 mph N/A   Clear
10:36 AM 69.8 °F 48.2 °F 46% 30.27 in 10.0 mi NNE 10.4 mph 16.1 mph N/A   Clear
10:55 AM 69.8 °F 48.2 °F 46% 30.27 in 10.0 mi North 6.9 mph - N/A   Clear
10:56 AM 69.8 °F 48.2 °F 46% 30.27 in 10.0 mi North 6.9 mph - N/A   Clear
11:15 AM 71.6 °F 48.2 °F 43% 30.27 in 10.0 mi North 6.9 mph 18.4 mph N/A   Clear
11:35 AM 71.6 °F 48.2 °F 43% 30.28 in 10.0 mi NNE 8.1 mph - N/A   Clear
11:36 AM 71.6 °F 48.2 °F 43% 30.28 in 10.0 mi NNE 6.9 mph - N/A   Clear
11:55 AM 71.6 °F 48.2 °F 43% 30.28 in 10.0 mi NNE 8.1 mph - N/A   Clear
12:15 PM 71.6 °F 48.2 °F 43% 30.28 in 10.0 mi NNE 8.1 mph - N/A   Clear
12:16 PM 71.6 °F 48.2 °F 43% 30.28 in 10.0 mi NNE 8.1 mph - N/A   Clear
12:35 PM 71.6 °F 46.4 °F 41% 30.28 in 10.0 mi NNE 8.1 mph - N/A   Clear
12:55 PM 73.4 °F 48.2 °F 41% 30.27 in 10.0 mi NNE 10.4 mph - N/A   Scattered Clouds
12:56 PM 73.4 °F 48.2 °F 41% 30.27 in 10.0 mi NNE 9.2 mph - N/A   Scattered Clouds
1:15 PM 71.6 °F 48.2 °F 43% 30.27 in 10.0 mi North 6.9 mph - N/A   Scattered Clouds
1:35 PM 73.4 °F 48.2 °F 41% 30.27 in 10.0 mi North 8.1 mph - N/A   Scattered Clouds
1:36 PM 73.4 °F 48.2 °F 41% 30.27 in 10.0 mi NNE 8.1 mph - N/A   Scattered Clouds
1:55 PM 73.4 °F 48.2 °F 41% 30.26 in 10.0 mi NNE 8.1 mph - N/A   Clear
1:56 PM 73.4 °F 48.2 °F 41% 30.26 in 10.0 mi NNE 8.1 mph - N/A   Clear
2:15 PM 73.4 °F 48.2 °F 41% 30.26 in 10.0 mi North 5.8 mph - N/A   Scattered Clouds
2:35 PM 73.4 °F 48.2 °F 41% 30.26 in 10.0 mi NNE 9.2 mph - N/A   Scattered Clouds
2:36 PM 73.4 °F 48.2 °F 41% 30.26 in 10.0 mi NNE 9.2 mph - N/A   Scattered Clouds
2:55 PM 73.4 °F 50.0 °F 44% 30.25 in 10.0 mi North 6.9 mph 16.1 mph N/A   Scattered Clouds
2:56 PM 73.4 °F 50.0 °F 44% 30.26 in 10.0 mi North 8.1 mph 16.1 mph N/A   Scattered Clouds
3:15 PM 75.2 °F 50.0 °F 41% 30.25 in 10.0 mi North 8.1 mph 16.1 mph N/A   Scattered Clouds
3:16 PM 75.2 °F 50.0 °F 41% 30.25 in 10.0 mi NNE 8.1 mph 16.1 mph N/A   Scattered Clouds
3:35 PM 75.2 °F 50.0 °F 41% 30.25 in 10.0 mi NNW 9.2 mph - N/A   Scattered Clouds
3:36 PM 75.2 °F 50.0 °F 41% 30.25 in 10.0 mi NNW 9.2 mph - N/A   Scattered Clouds
3:55 PM 73.4 °F 50.0 °F 44% 30.24 in 10.0 mi North 10.4 mph 19.6 mph N/A   Scattered Clouds
3:56 PM 73.4 °F 50.0 °F 44% 30.24 in 10.0 mi North 8.1 mph 19.6 mph N/A   Scattered Clouds
4:15 PM 75.2 °F 48.2 °F 38% 30.24 in 10.0 mi North 8.1 mph - N/A   Clear
4:16 PM 75.2 °F 48.2 °F 38% 30.24 in 10.0 mi North 8.1 mph - N/A   Clear
4:35 PM 75.2 °F 50.0 °F 41% 30.23 in 10.0 mi NNW 11.5 mph - N/A   Scattered Clouds
4:55 PM 75.2 °F 48.2 °F 38% 30.23 in 10.0 mi North 8.1 mph - N/A   Scattered Clouds
5:15 PM 75.2 °F 48.2 °F 38% 30.23 in 10.0 mi North 8.1 mph - N/A   Scattered Clouds
5:35 PM 73.4 °F 50.0 °F 44% 30.23 in 10.0 mi NNW 8.1 mph - N/A   Clear
5:36 PM 73.4 °F 48.2 °F 41% 30.23 in 10.0 mi NNW 8.1 mph - N/A   Clear
5:55 PM 75.2 °F 50.0 °F 41% 30.23 in 10.0 mi North 6.9 mph - N/A   Scattered Clouds
6:15 PM 73.4 °F 50.0 °F 44% 30.22 in 10.0 mi NNW 6.9 mph - N/A   Scattered Clouds
6:16 PM 73.4 °F 50.0 °F 44% 30.22 in 10.0 mi NNW 6.9 mph - N/A   Scattered Clouds
6:35 PM 73.4 °F 50.0 °F 44% 30.22 in 10.0 mi North 6.9 mph - N/A   Scattered Clouds
6:55 PM 73.4 °F 50.0 °F 44% 30.22 in 10.0 mi North 4.6 mph - N/A   Scattered Clouds
6:56 PM 73.4 °F 50.0 °F 44% 30.22 in 10.0 mi North 4.6 mph - N/A   Scattered Clouds
7:15 PM 73.4 °F 50.0 °F 44% 30.22 in 10.0 mi North 4.6 mph - N/A   Scattered Clouds
7:35 PM 71.6 °F 53.6 °F 53% 30.22 in 10.0 mi NNW 4.6 mph - N/A   Clear
7:36 PM 71.6 °F 53.6 °F 53% 30.22 in 10.0 mi NNW 3.5 mph - N/A   Clear
7:55 PM 71.6 °F 55.4 °F 57% 30.22 in 10.0 mi NW 4.6 mph - N/A   Clear
8:15 PM 69.8 °F 55.4 °F 60% 30.22 in 10.0 mi NW 3.5 mph - N/A   Clear
8:35 PM 68.0 °F 55.4 °F 64% 30.22 in 10.0 mi NW 3.5 mph - N/A   Clear
8:36 PM 68.0 °F 55.4 °F 64% 30.22 in 10.0 mi NW 3.5 mph - N/A   Clear
8:55 PM 66.2 °F 55.4 °F 68% 30.22 in 10.0 mi NW 3.5 mph - N/A   Clear
9:15 PM 64.4 °F 53.6 °F 68% 30.22 in 10.0 mi WNW 3.5 mph - N/A   Clear
9:16 PM 64.4 °F 53.6 °F 68% 30.22 in 10.0 mi NW 3.5 mph - N/A   Clear
9:35 PM 64.4 °F 55.4 °F 73% 30.23 in 10.0 mi WNW 3.5 mph - N/A   Clear
9:36 PM 64.4 °F 53.6 °F 68% 30.23 in 10.0 mi WNW 3.5 mph - N/A   Clear
9:55 PM 64.4 °F 55.4 °F 73% 30.23 in 10.0 mi WNW 3.5 mph - N/A   Clear
10:15 PM 62.6 °F 53.6 °F 72% 30.23 in 10.0 mi NW 5.8 mph - N/A   Clear
10:16 PM 62.6 °F 53.6 °F 72% 30.23 in 10.0 mi NW 5.8 mph - N/A   Clear
10:35 PM 62.6 °F 53.6 °F 72% 30.23 in 10.0 mi NW 4.6 mph - N/A   Clear
10:55 PM 62.6 °F 53.6 °F 72% 30.23 in 10.0 mi NW 5.8 mph - N/A   Clear
10:56 PM 62.6 °F 53.6 °F 72% 30.23 in 10.0 mi NW 5.8 mph - N/A   Clear
11:15 PM 60.8 °F 53.6 °F 77% 30.24 in 10.0 mi NW 4.6 mph - N/A   Clear
11:35 PM 60.8 °F 53.6 °F 77% 30.25 in 10.0 mi NW 5.8 mph - N/A   Clear
11:36 PM 60.8 °F 53.6 °F 77% 30.25 in 10.0 mi NW 5.8 mph - N/A   Clear
11:55 PM 60.8 °F 53.6 °F 77% 30.25 in 10.0 mi NW 4.6 mph - N/A   Clear